Index of /20260502/WXO-DD/model_rdps/10km/18/040
Name Last modified Size Description
Parent Directory -
20260502T18Z_MSC_RDPS_AbsoluteVorticity_IsbL-0250_RLatLon0.09_PT040H.grib2 2026-05-02 20:50 627K
20260502T18Z_MSC_RDPS_AbsoluteVorticity_IsbL-0500_RLatLon0.09_PT040H.grib2 2026-05-02 20:50 570K
20260502T18Z_MSC_RDPS_AbsoluteVorticity_IsbL-0700_RLatLon0.09_PT040H.grib2 2026-05-02 20:50 620K
20260502T18Z_MSC_RDPS_AbsoluteVorticity_IsbL-0850_RLatLon0.09_PT040H.grib2 2026-05-02 20:50 802K
20260502T18Z_MSC_RDPS_AirTemp_AGL-120m_RLatLon0.09_PT040H.grib2 2026-05-02 20:50 381K
20260502T18Z_MSC_RDPS_AirTemp_AGL-2m_RLatLon0.09_PT040H.grib2 2026-05-02 20:50 644K
20260502T18Z_MSC_RDPS_AirTemp_AGL-40m_RLatLon0.09_PT040H.grib2 2026-05-02 20:50 413K
20260502T18Z_MSC_RDPS_AirTemp_AGL-80m_RLatLon0.09_PT040H.grib2 2026-05-02 20:50 388K
20260502T18Z_MSC_RDPS_AirTemp_IsbL-0001_RLatLon0.09_PT040H.grib2 2026-05-02 20:50 306K
20260502T18Z_MSC_RDPS_AirTemp_IsbL-0005_RLatLon0.09_PT040H.grib2 2026-05-02 20:50 292K
20260502T18Z_MSC_RDPS_AirTemp_IsbL-0010_RLatLon0.09_PT040H.grib2 2026-05-02 20:50 302K
20260502T18Z_MSC_RDPS_AirTemp_IsbL-0020_RLatLon0.09_PT040H.grib2 2026-05-02 20:50 322K
20260502T18Z_MSC_RDPS_AirTemp_IsbL-0030_RLatLon0.09_PT040H.grib2 2026-05-02 20:50 342K
20260502T18Z_MSC_RDPS_AirTemp_IsbL-0050_RLatLon0.09_PT040H.grib2 2026-05-02 20:50 320K
20260502T18Z_MSC_RDPS_AirTemp_IsbL-0100_RLatLon0.09_PT040H.grib2 2026-05-02 20:50 432K
20260502T18Z_MSC_RDPS_AirTemp_IsbL-0150_RLatLon0.09_PT040H.grib2 2026-05-02 20:50 424K
20260502T18Z_MSC_RDPS_AirTemp_IsbL-0175_RLatLon0.09_PT040H.grib2 2026-05-02 20:50 413K
20260502T18Z_MSC_RDPS_AirTemp_IsbL-0200_RLatLon0.09_PT040H.grib2 2026-05-02 20:50 418K
20260502T18Z_MSC_RDPS_AirTemp_IsbL-0225_RLatLon0.09_PT040H.grib2 2026-05-02 20:50 424K
20260502T18Z_MSC_RDPS_AirTemp_IsbL-0250_RLatLon0.09_PT040H.grib2 2026-05-02 20:50 431K
20260502T18Z_MSC_RDPS_AirTemp_IsbL-0275_RLatLon0.09_PT040H.grib2 2026-05-02 20:50 409K
20260502T18Z_MSC_RDPS_AirTemp_IsbL-0300_RLatLon0.09_PT040H.grib2 2026-05-02 20:50 414K
20260502T18Z_MSC_RDPS_AirTemp_IsbL-0350_RLatLon0.09_PT040H.grib2 2026-05-02 20:50 428K
20260502T18Z_MSC_RDPS_AirTemp_IsbL-0400_RLatLon0.09_PT040H.grib2 2026-05-02 20:50 432K
20260502T18Z_MSC_RDPS_AirTemp_IsbL-0450_RLatLon0.09_PT040H.grib2 2026-05-02 20:50 440K
20260502T18Z_MSC_RDPS_AirTemp_IsbL-0500_RLatLon0.09_PT040H.grib2 2026-05-02 20:50 416K
20260502T18Z_MSC_RDPS_AirTemp_IsbL-0550_RLatLon0.09_PT040H.grib2 2026-05-02 20:50 431K
20260502T18Z_MSC_RDPS_AirTemp_IsbL-0600_RLatLon0.09_PT040H.grib2 2026-05-02 20:50 448K
20260502T18Z_MSC_RDPS_AirTemp_IsbL-0650_RLatLon0.09_PT040H.grib2 2026-05-02 20:50 462K
20260502T18Z_MSC_RDPS_AirTemp_IsbL-0700_RLatLon0.09_PT040H.grib2 2026-05-02 20:50 379K
20260502T18Z_MSC_RDPS_AirTemp_IsbL-0750_RLatLon0.09_PT040H.grib2 2026-05-02 20:50 415K
20260502T18Z_MSC_RDPS_AirTemp_IsbL-0800_RLatLon0.09_PT040H.grib2 2026-05-02 20:50 587K
20260502T18Z_MSC_RDPS_AirTemp_IsbL-0850_RLatLon0.09_PT040H.grib2 2026-05-02 20:50 649K
20260502T18Z_MSC_RDPS_AirTemp_IsbL-0875_RLatLon0.09_PT040H.grib2 2026-05-02 20:50 668K
20260502T18Z_MSC_RDPS_AirTemp_IsbL-0900_RLatLon0.09_PT040H.grib2 2026-05-02 20:50 540K
20260502T18Z_MSC_RDPS_AirTemp_IsbL-0925_RLatLon0.09_PT040H.grib2 2026-05-02 20:50 531K
20260502T18Z_MSC_RDPS_AirTemp_IsbL-0950_RLatLon0.09_PT040H.grib2 2026-05-02 20:50 531K
20260502T18Z_MSC_RDPS_AirTemp_IsbL-0970_RLatLon0.09_PT040H.grib2 2026-05-02 20:50 525K
20260502T18Z_MSC_RDPS_AirTemp_IsbL-0985_RLatLon0.09_PT040H.grib2 2026-05-02 20:50 512K
20260502T18Z_MSC_RDPS_AirTemp_IsbL-1000_RLatLon0.09_PT040H.grib2 2026-05-02 20:50 499K
20260502T18Z_MSC_RDPS_AirTemp_IsbL-1015_RLatLon0.09_PT040H.grib2 2026-05-02 20:50 502K
20260502T18Z_MSC_RDPS_Albedo_Sfc_RLatLon0.09_PT040H.grib2 2026-05-02 20:50 157K
20260502T18Z_MSC_RDPS_CAPE_Sfc_RLatLon0.09_PT040H.grib2 2026-05-02 20:50 1.6M
20260502T18Z_MSC_RDPS_CIN_Sfc_RLatLon0.09_PT040H.grib2 2026-05-02 20:50 1.1M
20260502T18Z_MSC_RDPS_CloudWater_EAtm_RLatLon0.09_PT040H.grib2 2026-05-02 20:50 223K
20260502T18Z_MSC_RDPS_ConvectivePrecip-Accum_Sfc_RLatLon0.09_PT040H.grib2 2026-05-02 20:50 1.0M
20260502T18Z_MSC_RDPS_DewPointDepression_AGL-2m_RLatLon0.09_PT040H.grib2 2026-05-02 20:50 402K
20260502T18Z_MSC_RDPS_DewPointDepression_IsbL-0001_RLatLon0.09_PT040H.grib2 2026-05-02 20:50 193
20260502T18Z_MSC_RDPS_DewPointDepression_IsbL-0005_RLatLon0.09_PT040H.grib2 2026-05-02 20:50 193
20260502T18Z_MSC_RDPS_DewPointDepression_IsbL-0010_RLatLon0.09_PT040H.grib2 2026-05-02 20:50 193
20260502T18Z_MSC_RDPS_DewPointDepression_IsbL-0020_RLatLon0.09_PT040H.grib2 2026-05-02 20:50 193
20260502T18Z_MSC_RDPS_DewPointDepression_IsbL-0030_RLatLon0.09_PT040H.grib2 2026-05-02 20:50 193
20260502T18Z_MSC_RDPS_DewPointDepression_IsbL-0050_RLatLon0.09_PT040H.grib2 2026-05-02 20:50 77K
20260502T18Z_MSC_RDPS_DewPointDepression_IsbL-0100_RLatLon0.09_PT040H.grib2 2026-05-02 20:50 120K
20260502T18Z_MSC_RDPS_DewPointDepression_IsbL-0150_RLatLon0.09_PT040H.grib2 2026-05-02 20:50 141K
20260502T18Z_MSC_RDPS_DewPointDepression_IsbL-0175_RLatLon0.09_PT040H.grib2 2026-05-02 20:50 177K
20260502T18Z_MSC_RDPS_DewPointDepression_IsbL-0200_RLatLon0.09_PT040H.grib2 2026-05-02 20:50 218K
20260502T18Z_MSC_RDPS_DewPointDepression_IsbL-0225_RLatLon0.09_PT040H.grib2 2026-05-02 20:50 263K
20260502T18Z_MSC_RDPS_DewPointDepression_IsbL-0250_RLatLon0.09_PT040H.grib2 2026-05-02 20:50 304K
20260502T18Z_MSC_RDPS_DewPointDepression_IsbL-0275_RLatLon0.09_PT040H.grib2 2026-05-02 20:50 311K
20260502T18Z_MSC_RDPS_DewPointDepression_IsbL-0300_RLatLon0.09_PT040H.grib2 2026-05-02 20:50 329K
20260502T18Z_MSC_RDPS_DewPointDepression_IsbL-0350_RLatLon0.09_PT040H.grib2 2026-05-02 20:50 338K
20260502T18Z_MSC_RDPS_DewPointDepression_IsbL-0400_RLatLon0.09_PT040H.grib2 2026-05-02 20:50 346K
20260502T18Z_MSC_RDPS_DewPointDepression_IsbL-0450_RLatLon0.09_PT040H.grib2 2026-05-02 20:50 346K
20260502T18Z_MSC_RDPS_DewPointDepression_IsbL-0500_RLatLon0.09_PT040H.grib2 2026-05-02 20:50 347K
20260502T18Z_MSC_RDPS_DewPointDepression_IsbL-0550_RLatLon0.09_PT040H.grib2 2026-05-02 20:50 355K
20260502T18Z_MSC_RDPS_DewPointDepression_IsbL-0600_RLatLon0.09_PT040H.grib2 2026-05-02 20:50 370K
20260502T18Z_MSC_RDPS_DewPointDepression_IsbL-0650_RLatLon0.09_PT040H.grib2 2026-05-02 20:50 378K
20260502T18Z_MSC_RDPS_DewPointDepression_IsbL-0700_RLatLon0.09_PT040H.grib2 2026-05-02 20:50 387K
20260502T18Z_MSC_RDPS_DewPointDepression_IsbL-0750_RLatLon0.09_PT040H.grib2 2026-05-02 20:50 406K
20260502T18Z_MSC_RDPS_DewPointDepression_IsbL-0800_RLatLon0.09_PT040H.grib2 2026-05-02 20:50 447K
20260502T18Z_MSC_RDPS_DewPointDepression_IsbL-0850_RLatLon0.09_PT040H.grib2 2026-05-02 20:50 481K
20260502T18Z_MSC_RDPS_DewPointDepression_IsbL-0875_RLatLon0.09_PT040H.grib2 2026-05-02 20:50 476K
20260502T18Z_MSC_RDPS_DewPointDepression_IsbL-0900_RLatLon0.09_PT040H.grib2 2026-05-02 20:50 463K
20260502T18Z_MSC_RDPS_DewPointDepression_IsbL-0925_RLatLon0.09_PT040H.grib2 2026-05-02 20:50 448K
20260502T18Z_MSC_RDPS_DewPointDepression_IsbL-0950_RLatLon0.09_PT040H.grib2 2026-05-02 20:50 443K
20260502T18Z_MSC_RDPS_DewPointDepression_IsbL-0970_RLatLon0.09_PT040H.grib2 2026-05-02 20:50 437K
20260502T18Z_MSC_RDPS_DewPointDepression_IsbL-0985_RLatLon0.09_PT040H.grib2 2026-05-02 20:50 434K
20260502T18Z_MSC_RDPS_DewPointDepression_IsbL-1000_RLatLon0.09_PT040H.grib2 2026-05-02 20:50 431K
20260502T18Z_MSC_RDPS_DewPointDepression_IsbL-1015_RLatLon0.09_PT040H.grib2 2026-05-02 20:50 424K
20260502T18Z_MSC_RDPS_DewPoint_AGL-2m_RLatLon0.09_PT040H.grib2 2026-05-02 20:50 311K
20260502T18Z_MSC_RDPS_DownwardLongwaveRadiationFlux-Accum_Sfc_RLatLon0.09_PT040H.grib2 2026-05-02 20:50 386K
20260502T18Z_MSC_RDPS_DownwardShortwaveRadiationFlux-Accum_NTAtm_RLatLon0.09_PT040H.grib2 2026-05-02 20:50 139K
20260502T18Z_MSC_RDPS_DownwardShortwaveRadiationFlux-Accum_Sfc_RLatLon0.09_PT040H.grib2 2026-05-02 20:50 572K
20260502T18Z_MSC_RDPS_FreezingRain-Accum1h_Sfc_RLatLon0.09_PT040H.grib2 2026-05-02 20:50 48K
20260502T18Z_MSC_RDPS_FreezingRain-Accum_Sfc_RLatLon0.09_PT040H.grib2 2026-05-02 20:50 140K
20260502T18Z_MSC_RDPS_GeopotentialHeight_IsbL-0001_RLatLon0.09_PT040H.grib2 2026-05-02 20:50 321K
20260502T18Z_MSC_RDPS_GeopotentialHeight_IsbL-0005_RLatLon0.09_PT040H.grib2 2026-05-02 20:50 313K
20260502T18Z_MSC_RDPS_GeopotentialHeight_IsbL-0010_RLatLon0.09_PT040H.grib2 2026-05-02 20:50 314K
20260502T18Z_MSC_RDPS_GeopotentialHeight_IsbL-0020_RLatLon0.09_PT040H.grib2 2026-05-02 20:50 412K
20260502T18Z_MSC_RDPS_GeopotentialHeight_IsbL-0030_RLatLon0.09_PT040H.grib2 2026-05-02 20:50 415K
20260502T18Z_MSC_RDPS_GeopotentialHeight_IsbL-0050_RLatLon0.09_PT040H.grib2 2026-05-02 20:50 318K
20260502T18Z_MSC_RDPS_GeopotentialHeight_IsbL-0100_RLatLon0.09_PT040H.grib2 2026-05-02 20:50 293K
20260502T18Z_MSC_RDPS_GeopotentialHeight_IsbL-0150_RLatLon0.09_PT040H.grib2 2026-05-02 20:50 234K
20260502T18Z_MSC_RDPS_GeopotentialHeight_IsbL-0175_RLatLon0.09_PT040H.grib2 2026-05-02 20:50 237K
20260502T18Z_MSC_RDPS_GeopotentialHeight_IsbL-0200_RLatLon0.09_PT040H.grib2 2026-05-02 20:50 239K
20260502T18Z_MSC_RDPS_GeopotentialHeight_IsbL-0225_RLatLon0.09_PT040H.grib2 2026-05-02 20:50 241K
20260502T18Z_MSC_RDPS_GeopotentialHeight_IsbL-0250_RLatLon0.09_PT040H.grib2 2026-05-02 20:50 242K
20260502T18Z_MSC_RDPS_GeopotentialHeight_IsbL-0275_RLatLon0.09_PT040H.grib2 2026-05-02 20:50 241K
20260502T18Z_MSC_RDPS_GeopotentialHeight_IsbL-0300_RLatLon0.09_PT040H.grib2 2026-05-02 20:50 240K
20260502T18Z_MSC_RDPS_GeopotentialHeight_IsbL-0350_RLatLon0.09_PT040H.grib2 2026-05-02 20:50 235K
20260502T18Z_MSC_RDPS_GeopotentialHeight_IsbL-0400_RLatLon0.09_PT040H.grib2 2026-05-02 20:50 231K
20260502T18Z_MSC_RDPS_GeopotentialHeight_IsbL-0450_RLatLon0.09_PT040H.grib2 2026-05-02 20:50 303K
20260502T18Z_MSC_RDPS_GeopotentialHeight_IsbL-0500_RLatLon0.09_PT040H.grib2 2026-05-02 20:50 298K
20260502T18Z_MSC_RDPS_GeopotentialHeight_IsbL-0550_RLatLon0.09_PT040H.grib2 2026-05-02 20:50 293K
20260502T18Z_MSC_RDPS_GeopotentialHeight_IsbL-0600_RLatLon0.09_PT040H.grib2 2026-05-02 20:50 289K
20260502T18Z_MSC_RDPS_GeopotentialHeight_IsbL-0650_RLatLon0.09_PT040H.grib2 2026-05-02 20:50 259K
20260502T18Z_MSC_RDPS_GeopotentialHeight_IsbL-0700_RLatLon0.09_PT040H.grib2 2026-05-02 20:50 258K
20260502T18Z_MSC_RDPS_GeopotentialHeight_IsbL-0750_RLatLon0.09_PT040H.grib2 2026-05-02 20:50 345K
20260502T18Z_MSC_RDPS_GeopotentialHeight_IsbL-0800_RLatLon0.09_PT040H.grib2 2026-05-02 20:50 355K
20260502T18Z_MSC_RDPS_GeopotentialHeight_IsbL-0850_RLatLon0.09_PT040H.grib2 2026-05-02 20:50 365K
20260502T18Z_MSC_RDPS_GeopotentialHeight_IsbL-0875_RLatLon0.09_PT040H.grib2 2026-05-02 20:50 368K
20260502T18Z_MSC_RDPS_GeopotentialHeight_IsbL-0900_RLatLon0.09_PT040H.grib2 2026-05-02 20:50 370K
20260502T18Z_MSC_RDPS_GeopotentialHeight_IsbL-0925_RLatLon0.09_PT040H.grib2 2026-05-02 20:50 371K
20260502T18Z_MSC_RDPS_GeopotentialHeight_IsbL-0950_RLatLon0.09_PT040H.grib2 2026-05-02 20:50 374K
20260502T18Z_MSC_RDPS_GeopotentialHeight_IsbL-0970_RLatLon0.09_PT040H.grib2 2026-05-02 20:50 379K
20260502T18Z_MSC_RDPS_GeopotentialHeight_IsbL-0985_RLatLon0.09_PT040H.grib2 2026-05-02 20:50 388K
20260502T18Z_MSC_RDPS_GeopotentialHeight_IsbL-1000_RLatLon0.09_PT040H.grib2 2026-05-02 20:50 400K
20260502T18Z_MSC_RDPS_GeopotentialHeight_IsbL-1015_RLatLon0.09_PT040H.grib2 2026-05-02 20:50 319K
20260502T18Z_MSC_RDPS_Humidex_Sfc_RLatLon0.09_PT040H.grib2 2026-05-02 20:50 2.4M
20260502T18Z_MSC_RDPS_IcePellets-Accum1h_Sfc_RLatLon0.09_PT040H.grib2 2026-05-02 20:50 3.4K
20260502T18Z_MSC_RDPS_IcePellets-Accum_Sfc_RLatLon0.09_PT040H.grib2 2026-05-02 20:50 16K
20260502T18Z_MSC_RDPS_KIndex_Sfc_RLatLon0.09_PT040H.grib2 2026-05-02 20:50 2.5M
20260502T18Z_MSC_RDPS_LatentHeatNetFlux_Sfc_RLatLon0.09_PT040H.grib2 2026-05-02 20:50 422K
20260502T18Z_MSC_RDPS_LiftedIndex-MU-VT_IsbL-0500_RLatLon0.09_PT040H.grib2 2026-05-02 20:50 2.4M
20260502T18Z_MSC_RDPS_NetLongwaveRadiationFlux-Accum_Sfc_RLatLon0.09_PT040H.grib2 2026-05-02 20:50 523K
20260502T18Z_MSC_RDPS_NetShortwaveRadiationFlux-Accum_Sfc_RLatLon0.09_PT040H.grib2 2026-05-02 20:50 528K
20260502T18Z_MSC_RDPS_PlanetaryBoundaryLayerHeight_Sfc_RLatLon0.09_PT040H.grib2 2026-05-02 20:50 1.1M
20260502T18Z_MSC_RDPS_Precip-Accum1h_Sfc_RLatLon0.09_PT040H.grib2 2026-05-02 20:50 1.3M
20260502T18Z_MSC_RDPS_Precip-Accum_Sfc_RLatLon0.09_PT040H.grib2 2026-05-02 20:50 2.0M
20260502T18Z_MSC_RDPS_PrecipRate_Sfc_RLatLon0.09_PT040H.grib2 2026-05-02 20:50 179K
20260502T18Z_MSC_RDPS_PrecipType-Instant_Sfc_RLatLon0.09_PT040H.grib2 2026-05-02 20:50 632K
20260502T18Z_MSC_RDPS_Pressure-Trend3h_Sfc_RLatLon0.09_PT040H.grib2 2026-05-02 20:50 1.2M
20260502T18Z_MSC_RDPS_Pressure_MSL_RLatLon0.09_PT040H.grib2 2026-05-02 20:50 330K
20260502T18Z_MSC_RDPS_Pressure_PVU-1.5_RLatLon0.09_PT040H.grib2 2026-05-02 20:50 2.5M
20260502T18Z_MSC_RDPS_Pressure_PVU-1_RLatLon0.09_PT040H.grib2 2026-05-02 20:50 2.4M
20260502T18Z_MSC_RDPS_Pressure_PVU-2_RLatLon0.09_PT040H.grib2 2026-05-02 20:50 2.4M
20260502T18Z_MSC_RDPS_Pressure_Sfc_RLatLon0.09_PT040H.grib2 2026-05-02 20:50 501K
20260502T18Z_MSC_RDPS_RadiativeTemp_Sfc_RLatLon0.09_PT040H.grib2 2026-05-02 20:50 306K
20260502T18Z_MSC_RDPS_Rain-Accum1h_Sfc_RLatLon0.09_PT040H.grib2 2026-05-02 20:50 674K
20260502T18Z_MSC_RDPS_Rain-Accum_Sfc_RLatLon0.09_PT040H.grib2 2026-05-02 20:50 1.6M
20260502T18Z_MSC_RDPS_RelativeHumidity_AGL-2m_RLatLon0.09_PT040H.grib2 2026-05-02 20:50 1.0M
20260502T18Z_MSC_RDPS_RelativeHumidity_IsbL-0010_RLatLon0.09_PT040H.grib2 2026-05-02 20:50 598K
20260502T18Z_MSC_RDPS_RelativeHumidity_IsbL-0020_RLatLon0.09_PT040H.grib2 2026-05-02 20:50 671K
20260502T18Z_MSC_RDPS_RelativeHumidity_IsbL-0030_RLatLon0.09_PT040H.grib2 2026-05-02 20:50 606K
20260502T18Z_MSC_RDPS_RelativeHumidity_IsbL-0050_RLatLon0.09_PT040H.grib2 2026-05-02 20:50 364K
20260502T18Z_MSC_RDPS_RelativeHumidity_IsbL-0100_RLatLon0.09_PT040H.grib2 2026-05-02 20:50 282K
20260502T18Z_MSC_RDPS_RelativeHumidity_IsbL-0150_RLatLon0.09_PT040H.grib2 2026-05-02 20:50 409K
20260502T18Z_MSC_RDPS_RelativeHumidity_IsbL-0175_RLatLon0.09_PT040H.grib2 2026-05-02 20:50 473K
20260502T18Z_MSC_RDPS_RelativeHumidity_IsbL-0200_RLatLon0.09_PT040H.grib2 2026-05-02 20:50 552K
20260502T18Z_MSC_RDPS_RelativeHumidity_IsbL-0225_RLatLon0.09_PT040H.grib2 2026-05-02 20:50 627K
20260502T18Z_MSC_RDPS_RelativeHumidity_IsbL-0250_RLatLon0.09_PT040H.grib2 2026-05-02 20:50 699K
20260502T18Z_MSC_RDPS_RelativeHumidity_IsbL-0275_RLatLon0.09_PT040H.grib2 2026-05-02 20:50 722K
20260502T18Z_MSC_RDPS_RelativeHumidity_IsbL-0300_RLatLon0.09_PT040H.grib2 2026-05-02 20:50 762K
20260502T18Z_MSC_RDPS_RelativeHumidity_IsbL-0350_RLatLon0.09_PT040H.grib2 2026-05-02 20:50 788K
20260502T18Z_MSC_RDPS_RelativeHumidity_IsbL-0400_RLatLon0.09_PT040H.grib2 2026-05-02 20:50 797K
20260502T18Z_MSC_RDPS_RelativeHumidity_IsbL-0450_RLatLon0.09_PT040H.grib2 2026-05-02 20:50 796K
20260502T18Z_MSC_RDPS_RelativeHumidity_IsbL-0500_RLatLon0.09_PT040H.grib2 2026-05-02 20:50 799K
20260502T18Z_MSC_RDPS_RelativeHumidity_IsbL-0550_RLatLon0.09_PT040H.grib2 2026-05-02 20:50 814K
20260502T18Z_MSC_RDPS_RelativeHumidity_IsbL-0600_RLatLon0.09_PT040H.grib2 2026-05-02 20:50 845K
20260502T18Z_MSC_RDPS_RelativeHumidity_IsbL-0650_RLatLon0.09_PT040H.grib2 2026-05-02 20:50 858K
20260502T18Z_MSC_RDPS_RelativeHumidity_IsbL-0700_RLatLon0.09_PT040H.grib2 2026-05-02 20:50 877K
20260502T18Z_MSC_RDPS_RelativeHumidity_IsbL-0750_RLatLon0.09_PT040H.grib2 2026-05-02 20:50 919K
20260502T18Z_MSC_RDPS_RelativeHumidity_IsbL-0800_RLatLon0.09_PT040H.grib2 2026-05-02 20:50 1.0M
20260502T18Z_MSC_RDPS_RelativeHumidity_IsbL-0850_RLatLon0.09_PT040H.grib2 2026-05-02 20:50 1.1M
20260502T18Z_MSC_RDPS_RelativeHumidity_IsbL-0875_RLatLon0.09_PT040H.grib2 2026-05-02 20:50 1.1M
20260502T18Z_MSC_RDPS_RelativeHumidity_IsbL-0900_RLatLon0.09_PT040H.grib2 2026-05-02 20:50 1.1M
20260502T18Z_MSC_RDPS_RelativeHumidity_IsbL-0925_RLatLon0.09_PT040H.grib2 2026-05-02 20:50 1.1M
20260502T18Z_MSC_RDPS_RelativeHumidity_IsbL-0950_RLatLon0.09_PT040H.grib2 2026-05-02 20:50 1.1M
20260502T18Z_MSC_RDPS_RelativeHumidity_IsbL-0970_RLatLon0.09_PT040H.grib2 2026-05-02 20:50 1.1M
20260502T18Z_MSC_RDPS_RelativeHumidity_IsbL-0985_RLatLon0.09_PT040H.grib2 2026-05-02 20:50 1.0M
20260502T18Z_MSC_RDPS_RelativeHumidity_IsbL-1000_RLatLon0.09_PT040H.grib2 2026-05-02 20:50 1.0M
20260502T18Z_MSC_RDPS_RelativeHumidity_IsbL-1015_RLatLon0.09_PT040H.grib2 2026-05-02 20:50 1.0M
20260502T18Z_MSC_RDPS_Runoff-Accum_Sfc_RLatLon0.09_PT040H.grib2 2026-05-02 20:50 68K
20260502T18Z_MSC_RDPS_SWEATIndex_Sfc_RLatLon0.09_PT040H.grib2 2026-05-02 20:50 2.4M
20260502T18Z_MSC_RDPS_SeeingIndex_EAtm_RLatLon0.09_PT040H.grib2 2026-05-02 20:50 1.0M
20260502T18Z_MSC_RDPS_SensibleHeatNetFlux_Sfc_RLatLon0.09_PT040H.grib2 2026-05-02 20:50 302K
20260502T18Z_MSC_RDPS_ShowalterIndex_IsbL-0500_RLatLon0.09_PT040H.grib2 2026-05-02 20:50 2.6M
20260502T18Z_MSC_RDPS_SkyTransparencyIndex_EAtm_RLatLon0.09_PT040H.grib2 2026-05-02 20:50 724K
20260502T18Z_MSC_RDPS_Snow-Accum1h_Sfc_RLatLon0.09_PT040H.grib2 2026-05-02 20:50 546K
20260502T18Z_MSC_RDPS_Snow-Accum_Sfc_RLatLon0.09_PT040H.grib2 2026-05-02 20:50 756K
20260502T18Z_MSC_RDPS_SnowDensity_Sfc_RLatLon0.09_PT040H.grib2 2026-05-02 20:50 170K
20260502T18Z_MSC_RDPS_SnowDepth_Sfc_RLatLon0.09_PT040H.grib2 2026-05-02 20:50 652K
20260502T18Z_MSC_RDPS_SoilTemp_DBS-0to10cm_RLatLon0.09_PT040H.grib2 2026-05-02 20:50 238K
20260502T18Z_MSC_RDPS_SoilTemp_Sfc_RLatLon0.09_PT040H.grib2 2026-05-02 20:50 285K
20260502T18Z_MSC_RDPS_SoilVolumetricIceContent_Sfc_RLatLon0.09_PT040H.grib2 2026-05-02 20:50 155K
20260502T18Z_MSC_RDPS_SoilVolumetricWaterContent_DBS-0to10cm_RLatLon0.09_PT040H.grib2 2026-05-02 20:50 275K
20260502T18Z_MSC_RDPS_SoilVolumetricWaterContent_DBS-0to1cm_RLatLon0.09_PT040H.grib2 2026-05-02 20:50 342K
20260502T18Z_MSC_RDPS_SpecificHumidity_AGL-120m_RLatLon0.09_PT040H.grib2 2026-05-02 20:50 495K
20260502T18Z_MSC_RDPS_SpecificHumidity_AGL-2m_RLatLon0.09_PT040H.grib2 2026-05-02 20:50 664K
20260502T18Z_MSC_RDPS_SpecificHumidity_AGL-40m_RLatLon0.09_PT040H.grib2 2026-05-02 20:50 502K
20260502T18Z_MSC_RDPS_SpecificHumidity_AGL-80m_RLatLon0.09_PT040H.grib2 2026-05-02 20:50 497K
20260502T18Z_MSC_RDPS_SpecificHumidity_IsbL-0001_RLatLon0.09_PT040H.grib2 2026-05-02 20:50 354K
20260502T18Z_MSC_RDPS_SpecificHumidity_IsbL-0005_RLatLon0.09_PT040H.grib2 2026-05-02 20:50 370K
20260502T18Z_MSC_RDPS_SpecificHumidity_IsbL-0010_RLatLon0.09_PT040H.grib2 2026-05-02 20:50 403K
20260502T18Z_MSC_RDPS_SpecificHumidity_IsbL-0020_RLatLon0.09_PT040H.grib2 2026-05-02 20:50 380K
20260502T18Z_MSC_RDPS_SpecificHumidity_IsbL-0030_RLatLon0.09_PT040H.grib2 2026-05-02 20:50 375K
20260502T18Z_MSC_RDPS_SpecificHumidity_IsbL-0050_RLatLon0.09_PT040H.grib2 2026-05-02 20:50 486K
20260502T18Z_MSC_RDPS_SpecificHumidity_IsbL-0100_RLatLon0.09_PT040H.grib2 2026-05-02 20:50 540K
20260502T18Z_MSC_RDPS_SpecificHumidity_IsbL-0150_RLatLon0.09_PT040H.grib2 2026-05-02 20:50 447K
20260502T18Z_MSC_RDPS_SpecificHumidity_IsbL-0175_RLatLon0.09_PT040H.grib2 2026-05-02 20:50 437K
20260502T18Z_MSC_RDPS_SpecificHumidity_IsbL-0200_RLatLon0.09_PT040H.grib2 2026-05-02 20:50 457K
20260502T18Z_MSC_RDPS_SpecificHumidity_IsbL-0225_RLatLon0.09_PT040H.grib2 2026-05-02 20:50 463K
20260502T18Z_MSC_RDPS_SpecificHumidity_IsbL-0250_RLatLon0.09_PT040H.grib2 2026-05-02 20:50 528K
20260502T18Z_MSC_RDPS_SpecificHumidity_IsbL-0275_RLatLon0.09_PT040H.grib2 2026-05-02 20:50 485K
20260502T18Z_MSC_RDPS_SpecificHumidity_IsbL-0300_RLatLon0.09_PT040H.grib2 2026-05-02 20:50 457K
20260502T18Z_MSC_RDPS_SpecificHumidity_IsbL-0350_RLatLon0.09_PT040H.grib2 2026-05-02 20:50 580K
20260502T18Z_MSC_RDPS_SpecificHumidity_IsbL-0400_RLatLon0.09_PT040H.grib2 2026-05-02 20:50 530K
20260502T18Z_MSC_RDPS_SpecificHumidity_IsbL-0450_RLatLon0.09_PT040H.grib2 2026-05-02 20:50 575K
20260502T18Z_MSC_RDPS_SpecificHumidity_IsbL-0500_RLatLon0.09_PT040H.grib2 2026-05-02 20:50 508K
20260502T18Z_MSC_RDPS_SpecificHumidity_IsbL-0550_RLatLon0.09_PT040H.grib2 2026-05-02 20:50 578K
20260502T18Z_MSC_RDPS_SpecificHumidity_IsbL-0600_RLatLon0.09_PT040H.grib2 2026-05-02 20:50 631K
20260502T18Z_MSC_RDPS_SpecificHumidity_IsbL-0650_RLatLon0.09_PT040H.grib2 2026-05-02 20:50 548K
20260502T18Z_MSC_RDPS_SpecificHumidity_IsbL-0700_RLatLon0.09_PT040H.grib2 2026-05-02 20:50 588K
20260502T18Z_MSC_RDPS_SpecificHumidity_IsbL-0750_RLatLon0.09_PT040H.grib2 2026-05-02 20:50 644K
20260502T18Z_MSC_RDPS_SpecificHumidity_IsbL-0800_RLatLon0.09_PT040H.grib2 2026-05-02 20:50 723K
20260502T18Z_MSC_RDPS_SpecificHumidity_IsbL-0850_RLatLon0.09_PT040H.grib2 2026-05-02 20:50 815K
20260502T18Z_MSC_RDPS_SpecificHumidity_IsbL-0875_RLatLon0.09_PT040H.grib2 2026-05-02 20:50 838K
20260502T18Z_MSC_RDPS_SpecificHumidity_IsbL-0900_RLatLon0.09_PT040H.grib2 2026-05-02 20:50 846K
20260502T18Z_MSC_RDPS_SpecificHumidity_IsbL-0925_RLatLon0.09_PT040H.grib2 2026-05-02 20:50 843K
20260502T18Z_MSC_RDPS_SpecificHumidity_IsbL-0950_RLatLon0.09_PT040H.grib2 2026-05-02 20:50 703K
20260502T18Z_MSC_RDPS_SpecificHumidity_IsbL-0970_RLatLon0.09_PT040H.grib2 2026-05-02 20:50 697K
20260502T18Z_MSC_RDPS_SpecificHumidity_IsbL-0985_RLatLon0.09_PT040H.grib2 2026-05-02 20:50 690K
20260502T18Z_MSC_RDPS_SpecificHumidity_IsbL-1000_RLatLon0.09_PT040H.grib2 2026-05-02 20:50 685K
20260502T18Z_MSC_RDPS_SpecificHumidity_IsbL-1015_RLatLon0.09_PT040H.grib2 2026-05-02 20:50 676K
20260502T18Z_MSC_RDPS_SpecificHumidity_Sfc_RLatLon0.09_PT040H.grib2 2026-05-02 20:50 295K
20260502T18Z_MSC_RDPS_StormRelativeHelicity_EtaL-10000_RLatLon0.09_PT040H.grib2 2026-05-02 20:50 1.1M
20260502T18Z_MSC_RDPS_StormSeverityIndex_EtaL-10000_RLatLon0.09_PT040H.grib2 2026-05-02 20:50 1.2M
20260502T18Z_MSC_RDPS_Thickness_IsbL-0850to0700_RLatLon0.09_PT040H.grib2 2026-05-02 20:50 178K
20260502T18Z_MSC_RDPS_Thickness_IsbL-1000to0500_RLatLon0.09_PT040H.grib2 2026-05-02 20:50 197K
20260502T18Z_MSC_RDPS_Thickness_IsbL-1000to0850_RLatLon0.09_PT040H.grib2 2026-05-02 20:50 265K
20260502T18Z_MSC_RDPS_TotalCloudCover_Sfc_RLatLon0.09_PT040H.grib2 2026-05-02 20:50 679K
20260502T18Z_MSC_RDPS_TotalTotalsIndex_Sfc_RLatLon0.09_PT040H.grib2 2026-05-02 20:50 2.4M
20260502T18Z_MSC_RDPS_UVIndex-ClearSky_Sfc_RLatLon0.09_PT040H.grib2 2026-05-02 20:50 96K
20260502T18Z_MSC_RDPS_UVIndex_Sfc_RLatLon0.09_PT040H.grib2 2026-05-02 20:50 213K
20260502T18Z_MSC_RDPS_UpwardLongwaveRadiationFlux_NTAtm_RLatLon0.09_PT040H.grib2 2026-05-02 20:50 497K
20260502T18Z_MSC_RDPS_UpwardShortwaveRadiationFlux_NTAtm_RLatLon0.09_PT040H.grib2 2026-05-02 20:50 209K
20260502T18Z_MSC_RDPS_VerticalVelocity_IsbL-0250_RLatLon0.09_PT040H.grib2 2026-05-02 20:50 443K
20260502T18Z_MSC_RDPS_VerticalVelocity_IsbL-0500_RLatLon0.09_PT040H.grib2 2026-05-02 20:50 557K
20260502T18Z_MSC_RDPS_VerticalVelocity_IsbL-0700_RLatLon0.09_PT040H.grib2 2026-05-02 20:50 607K
20260502T18Z_MSC_RDPS_VerticalVelocity_IsbL-0850_RLatLon0.09_PT040H.grib2 2026-05-02 20:50 717K
20260502T18Z_MSC_RDPS_VerticalWindShear_EtaL-6500_RLatLon0.09_PT040H.grib2 2026-05-02 20:50 1.2M
20260502T18Z_MSC_RDPS_WindChill_Sfc_RLatLon0.09_PT040H.grib2 2026-05-02 20:50 1.1M
20260502T18Z_MSC_RDPS_WindDir_AGL-10m_RLatLon0.09_PT040H.grib2 2026-05-02 20:50 1.0M
20260502T18Z_MSC_RDPS_WindDir_AGL-120m_RLatLon0.09_PT040H.grib2 2026-05-02 20:50 619K
20260502T18Z_MSC_RDPS_WindDir_AGL-40m_RLatLon0.09_PT040H.grib2 2026-05-02 20:50 655K
20260502T18Z_MSC_RDPS_WindDir_AGL-80m_RLatLon0.09_PT040H.grib2 2026-05-02 20:50 633K
20260502T18Z_MSC_RDPS_WindDir_IsbL-0001_RLatLon0.09_PT040H.grib2 2026-05-02 20:50 306K
20260502T18Z_MSC_RDPS_WindDir_IsbL-0005_RLatLon0.09_PT040H.grib2 2026-05-02 20:50 384K
20260502T18Z_MSC_RDPS_WindDir_IsbL-0010_RLatLon0.09_PT040H.grib2 2026-05-02 20:50 396K
20260502T18Z_MSC_RDPS_WindDir_IsbL-0020_RLatLon0.09_PT040H.grib2 2026-05-02 20:50 425K
20260502T18Z_MSC_RDPS_WindDir_IsbL-0030_RLatLon0.09_PT040H.grib2 2026-05-02 20:50 433K
20260502T18Z_MSC_RDPS_WindDir_IsbL-0050_RLatLon0.09_PT040H.grib2 2026-05-02 20:50 427K
20260502T18Z_MSC_RDPS_WindDir_IsbL-0100_RLatLon0.09_PT040H.grib2 2026-05-02 20:50 407K
20260502T18Z_MSC_RDPS_WindDir_IsbL-0150_RLatLon0.09_PT040H.grib2 2026-05-02 20:50 421K
20260502T18Z_MSC_RDPS_WindDir_IsbL-0175_RLatLon0.09_PT040H.grib2 2026-05-02 20:50 441K
20260502T18Z_MSC_RDPS_WindDir_IsbL-0200_RLatLon0.09_PT040H.grib2 2026-05-02 20:50 457K
20260502T18Z_MSC_RDPS_WindDir_IsbL-0225_RLatLon0.09_PT040H.grib2 2026-05-02 20:50 462K
20260502T18Z_MSC_RDPS_WindDir_IsbL-0250_RLatLon0.09_PT040H.grib2 2026-05-02 20:50 458K
20260502T18Z_MSC_RDPS_WindDir_IsbL-0275_RLatLon0.09_PT040H.grib2 2026-05-02 20:50 477K
20260502T18Z_MSC_RDPS_WindDir_IsbL-0300_RLatLon0.09_PT040H.grib2 2026-05-02 20:50 472K
20260502T18Z_MSC_RDPS_WindDir_IsbL-0350_RLatLon0.09_PT040H.grib2 2026-05-02 20:50 495K
20260502T18Z_MSC_RDPS_WindDir_IsbL-0400_RLatLon0.09_PT040H.grib2 2026-05-02 20:50 522K
20260502T18Z_MSC_RDPS_WindDir_IsbL-0450_RLatLon0.09_PT040H.grib2 2026-05-02 20:50 530K
20260502T18Z_MSC_RDPS_WindDir_IsbL-0500_RLatLon0.09_PT040H.grib2 2026-05-02 20:50 532K
20260502T18Z_MSC_RDPS_WindDir_IsbL-0550_RLatLon0.09_PT040H.grib2 2026-05-02 20:50 548K
20260502T18Z_MSC_RDPS_WindDir_IsbL-0600_RLatLon0.09_PT040H.grib2 2026-05-02 20:50 574K
20260502T18Z_MSC_RDPS_WindDir_IsbL-0650_RLatLon0.09_PT040H.grib2 2026-05-02 20:50 610K
20260502T18Z_MSC_RDPS_WindDir_IsbL-0700_RLatLon0.09_PT040H.grib2 2026-05-02 20:50 653K
20260502T18Z_MSC_RDPS_WindDir_IsbL-0750_RLatLon0.09_PT040H.grib2 2026-05-02 20:50 704K
20260502T18Z_MSC_RDPS_WindDir_IsbL-0800_RLatLon0.09_PT040H.grib2 2026-05-02 20:50 784K
20260502T18Z_MSC_RDPS_WindDir_IsbL-0850_RLatLon0.09_PT040H.grib2 2026-05-02 20:50 880K
20260502T18Z_MSC_RDPS_WindDir_IsbL-0875_RLatLon0.09_PT040H.grib2 2026-05-02 20:50 912K
20260502T18Z_MSC_RDPS_WindDir_IsbL-0900_RLatLon0.09_PT040H.grib2 2026-05-02 20:50 926K
20260502T18Z_MSC_RDPS_WindDir_IsbL-0925_RLatLon0.09_PT040H.grib2 2026-05-02 20:50 933K
20260502T18Z_MSC_RDPS_WindDir_IsbL-0950_RLatLon0.09_PT040H.grib2 2026-05-02 20:50 932K
20260502T18Z_MSC_RDPS_WindDir_IsbL-0970_RLatLon0.09_PT040H.grib2 2026-05-02 20:50 938K
20260502T18Z_MSC_RDPS_WindDir_IsbL-0985_RLatLon0.09_PT040H.grib2 2026-05-02 20:50 948K
20260502T18Z_MSC_RDPS_WindDir_IsbL-1000_RLatLon0.09_PT040H.grib2 2026-05-02 20:50 966K
20260502T18Z_MSC_RDPS_WindDir_IsbL-1015_RLatLon0.09_PT040H.grib2 2026-05-02 20:50 1.0M
20260502T18Z_MSC_RDPS_WindGust-Max_AGL-10m_RLatLon0.09_PT040H.grib2 2026-05-02 20:50 1.0M
20260502T18Z_MSC_RDPS_WindGust-Min_AGL-10m_RLatLon0.09_PT040H.grib2 2026-05-02 20:50 1.0M
20260502T18Z_MSC_RDPS_WindGust_AGL-10m_RLatLon0.09_PT040H.grib2 2026-05-02 20:50 1.0M
20260502T18Z_MSC_RDPS_WindSpeed_AGL-10m_RLatLon0.09_PT040H.grib2 2026-05-02 20:50 858K
20260502T18Z_MSC_RDPS_WindSpeed_AGL-120m_RLatLon0.09_PT040H.grib2 2026-05-02 20:50 552K
20260502T18Z_MSC_RDPS_WindSpeed_AGL-40m_RLatLon0.09_PT040H.grib2 2026-05-02 20:50 556K
20260502T18Z_MSC_RDPS_WindSpeed_AGL-80m_RLatLon0.09_PT040H.grib2 2026-05-02 20:50 554K
20260502T18Z_MSC_RDPS_WindSpeed_IsbL-0001_RLatLon0.09_PT040H.grib2 2026-05-02 20:50 254K
20260502T18Z_MSC_RDPS_WindSpeed_IsbL-0005_RLatLon0.09_PT040H.grib2 2026-05-02 20:50 298K
20260502T18Z_MSC_RDPS_WindSpeed_IsbL-0010_RLatLon0.09_PT040H.grib2 2026-05-02 20:50 368K
20260502T18Z_MSC_RDPS_WindSpeed_IsbL-0020_RLatLon0.09_PT040H.grib2 2026-05-02 20:50 425K
20260502T18Z_MSC_RDPS_WindSpeed_IsbL-0030_RLatLon0.09_PT040H.grib2 2026-05-02 20:50 328K
20260502T18Z_MSC_RDPS_WindSpeed_IsbL-0050_RLatLon0.09_PT040H.grib2 2026-05-02 20:50 356K
20260502T18Z_MSC_RDPS_WindSpeed_IsbL-0100_RLatLon0.09_PT040H.grib2 2026-05-02 20:50 447K
20260502T18Z_MSC_RDPS_WindSpeed_IsbL-0150_RLatLon0.09_PT040H.grib2 2026-05-02 20:50 388K
20260502T18Z_MSC_RDPS_WindSpeed_IsbL-0175_RLatLon0.09_PT040H.grib2 2026-05-02 20:50 433K
20260502T18Z_MSC_RDPS_WindSpeed_IsbL-0200_RLatLon0.09_PT040H.grib2 2026-05-02 20:50 447K
20260502T18Z_MSC_RDPS_WindSpeed_IsbL-0225_RLatLon0.09_PT040H.grib2 2026-05-02 20:50 455K
20260502T18Z_MSC_RDPS_WindSpeed_IsbL-0250_RLatLon0.09_PT040H.grib2 2026-05-02 20:50 456K
20260502T18Z_MSC_RDPS_WindSpeed_IsbL-0275_RLatLon0.09_PT040H.grib2 2026-05-02 20:50 474K
20260502T18Z_MSC_RDPS_WindSpeed_IsbL-0300_RLatLon0.09_PT040H.grib2 2026-05-02 20:50 471K
20260502T18Z_MSC_RDPS_WindSpeed_IsbL-0350_RLatLon0.09_PT040H.grib2 2026-05-02 20:50 482K
20260502T18Z_MSC_RDPS_WindSpeed_IsbL-0400_RLatLon0.09_PT040H.grib2 2026-05-02 20:50 486K
20260502T18Z_MSC_RDPS_WindSpeed_IsbL-0450_RLatLon0.09_PT040H.grib2 2026-05-02 20:50 472K
20260502T18Z_MSC_RDPS_WindSpeed_IsbL-0500_RLatLon0.09_PT040H.grib2 2026-05-02 20:50 470K
20260502T18Z_MSC_RDPS_WindSpeed_IsbL-0550_RLatLon0.09_PT040H.grib2 2026-05-02 20:50 585K
20260502T18Z_MSC_RDPS_WindSpeed_IsbL-0600_RLatLon0.09_PT040H.grib2 2026-05-02 20:50 594K
20260502T18Z_MSC_RDPS_WindSpeed_IsbL-0650_RLatLon0.09_PT040H.grib2 2026-05-02 20:50 614K
20260502T18Z_MSC_RDPS_WindSpeed_IsbL-0700_RLatLon0.09_PT040H.grib2 2026-05-02 20:50 681K
20260502T18Z_MSC_RDPS_WindSpeed_IsbL-0750_RLatLon0.09_PT040H.grib2 2026-05-02 20:50 713K
20260502T18Z_MSC_RDPS_WindSpeed_IsbL-0800_RLatLon0.09_PT040H.grib2 2026-05-02 20:50 771K
20260502T18Z_MSC_RDPS_WindSpeed_IsbL-0850_RLatLon0.09_PT040H.grib2 2026-05-02 20:50 837K
20260502T18Z_MSC_RDPS_WindSpeed_IsbL-0875_RLatLon0.09_PT040H.grib2 2026-05-02 20:50 859K
20260502T18Z_MSC_RDPS_WindSpeed_IsbL-0900_RLatLon0.09_PT040H.grib2 2026-05-02 20:50 870K
20260502T18Z_MSC_RDPS_WindSpeed_IsbL-0925_RLatLon0.09_PT040H.grib2 2026-05-02 20:50 880K
20260502T18Z_MSC_RDPS_WindSpeed_IsbL-0950_RLatLon0.09_PT040H.grib2 2026-05-02 20:50 879K
20260502T18Z_MSC_RDPS_WindSpeed_IsbL-0970_RLatLon0.09_PT040H.grib2 2026-05-02 20:50 875K
20260502T18Z_MSC_RDPS_WindSpeed_IsbL-0985_RLatLon0.09_PT040H.grib2 2026-05-02 20:50 870K
20260502T18Z_MSC_RDPS_WindSpeed_IsbL-1000_RLatLon0.09_PT040H.grib2 2026-05-02 20:50 865K
20260502T18Z_MSC_RDPS_WindSpeed_IsbL-1015_RLatLon0.09_PT040H.grib2 2026-05-02 20:50 856K
20260502T18Z_MSC_RDPS_WindU_AGL-10m_RLatLon0.09_PT040H.grib2 2026-05-02 20:50 439K
20260502T18Z_MSC_RDPS_WindU_AGL-120m_RLatLon0.09_PT040H.grib2 2026-05-02 20:50 545K
20260502T18Z_MSC_RDPS_WindU_AGL-40m_RLatLon0.09_PT040H.grib2 2026-05-02 20:50 549K
20260502T18Z_MSC_RDPS_WindU_AGL-80m_RLatLon0.09_PT040H.grib2 2026-05-02 20:50 547K
20260502T18Z_MSC_RDPS_WindU_IsbL-0001_RLatLon0.09_PT040H.grib2 2026-05-02 20:50 296K
20260502T18Z_MSC_RDPS_WindU_IsbL-0005_RLatLon0.09_PT040H.grib2 2026-05-02 20:50 329K
20260502T18Z_MSC_RDPS_WindU_IsbL-0010_RLatLon0.09_PT040H.grib2 2026-05-02 20:50 299K
20260502T18Z_MSC_RDPS_WindU_IsbL-0020_RLatLon0.09_PT040H.grib2 2026-05-02 20:50 356K
20260502T18Z_MSC_RDPS_WindU_IsbL-0030_RLatLon0.09_PT040H.grib2 2026-05-02 20:50 357K
20260502T18Z_MSC_RDPS_WindU_IsbL-0050_RLatLon0.09_PT040H.grib2 2026-05-02 20:50 384K
20260502T18Z_MSC_RDPS_WindU_IsbL-0100_RLatLon0.09_PT040H.grib2 2026-05-02 20:50 342K
20260502T18Z_MSC_RDPS_WindU_IsbL-0150_RLatLon0.09_PT040H.grib2 2026-05-02 20:50 403K
20260502T18Z_MSC_RDPS_WindU_IsbL-0175_RLatLon0.09_PT040H.grib2 2026-05-02 20:50 330K
20260502T18Z_MSC_RDPS_WindU_IsbL-0200_RLatLon0.09_PT040H.grib2 2026-05-02 20:50 342K
20260502T18Z_MSC_RDPS_WindU_IsbL-0225_RLatLon0.09_PT040H.grib2 2026-05-02 20:50 347K
20260502T18Z_MSC_RDPS_WindU_IsbL-0250_RLatLon0.09_PT040H.grib2 2026-05-02 20:50 347K
20260502T18Z_MSC_RDPS_WindU_IsbL-0275_RLatLon0.09_PT040H.grib2 2026-05-02 20:50 361K
20260502T18Z_MSC_RDPS_WindU_IsbL-0300_RLatLon0.09_PT040H.grib2 2026-05-02 20:50 356K
20260502T18Z_MSC_RDPS_WindU_IsbL-0350_RLatLon0.09_PT040H.grib2 2026-05-02 20:50 469K
20260502T18Z_MSC_RDPS_WindU_IsbL-0400_RLatLon0.09_PT040H.grib2 2026-05-02 20:50 475K
20260502T18Z_MSC_RDPS_WindU_IsbL-0450_RLatLon0.09_PT040H.grib2 2026-05-02 20:50 476K
20260502T18Z_MSC_RDPS_WindU_IsbL-0500_RLatLon0.09_PT040H.grib2 2026-05-02 20:50 475K
20260502T18Z_MSC_RDPS_WindU_IsbL-0550_RLatLon0.09_PT040H.grib2 2026-05-02 20:50 475K
20260502T18Z_MSC_RDPS_WindU_IsbL-0600_RLatLon0.09_PT040H.grib2 2026-05-02 20:50 483K
20260502T18Z_MSC_RDPS_WindU_IsbL-0650_RLatLon0.09_PT040H.grib2 2026-05-02 20:50 484K
20260502T18Z_MSC_RDPS_WindU_IsbL-0700_RLatLon0.09_PT040H.grib2 2026-05-02 20:50 505K
20260502T18Z_MSC_RDPS_WindU_IsbL-0750_RLatLon0.09_PT040H.grib2 2026-05-02 20:50 534K
20260502T18Z_MSC_RDPS_WindU_IsbL-0800_RLatLon0.09_PT040H.grib2 2026-05-02 20:50 584K
20260502T18Z_MSC_RDPS_WindU_IsbL-0850_RLatLon0.09_PT040H.grib2 2026-05-02 20:50 643K
20260502T18Z_MSC_RDPS_WindU_IsbL-0875_RLatLon0.09_PT040H.grib2 2026-05-02 20:50 662K
20260502T18Z_MSC_RDPS_WindU_IsbL-0900_RLatLon0.09_PT040H.grib2 2026-05-02 20:50 669K
20260502T18Z_MSC_RDPS_WindU_IsbL-0925_RLatLon0.09_PT040H.grib2 2026-05-02 20:50 674K
20260502T18Z_MSC_RDPS_WindU_IsbL-0950_RLatLon0.09_PT040H.grib2 2026-05-02 20:50 670K
20260502T18Z_MSC_RDPS_WindU_IsbL-0970_RLatLon0.09_PT040H.grib2 2026-05-02 20:50 807K
20260502T18Z_MSC_RDPS_WindU_IsbL-0985_RLatLon0.09_PT040H.grib2 2026-05-02 20:50 802K
20260502T18Z_MSC_RDPS_WindU_IsbL-1000_RLatLon0.09_PT040H.grib2 2026-05-02 20:50 799K
20260502T18Z_MSC_RDPS_WindU_IsbL-1015_RLatLon0.09_PT040H.grib2 2026-05-02 20:50 839K
20260502T18Z_MSC_RDPS_WindV_AGL-10m_RLatLon0.09_PT040H.grib2 2026-05-02 20:50 442K
20260502T18Z_MSC_RDPS_WindV_AGL-120m_RLatLon0.09_PT040H.grib2 2026-05-02 20:50 428K
20260502T18Z_MSC_RDPS_WindV_AGL-40m_RLatLon0.09_PT040H.grib2 2026-05-02 20:50 551K
20260502T18Z_MSC_RDPS_WindV_AGL-80m_RLatLon0.09_PT040H.grib2 2026-05-02 20:50 549K
20260502T18Z_MSC_RDPS_WindV_IsbL-0001_RLatLon0.09_PT040H.grib2 2026-05-02 20:50 250K
20260502T18Z_MSC_RDPS_WindV_IsbL-0005_RLatLon0.09_PT040H.grib2 2026-05-02 20:50 288K
20260502T18Z_MSC_RDPS_WindV_IsbL-0010_RLatLon0.09_PT040H.grib2 2026-05-02 20:50 301K
20260502T18Z_MSC_RDPS_WindV_IsbL-0020_RLatLon0.09_PT040H.grib2 2026-05-02 20:50 318K
20260502T18Z_MSC_RDPS_WindV_IsbL-0030_RLatLon0.09_PT040H.grib2 2026-05-02 20:50 319K
20260502T18Z_MSC_RDPS_WindV_IsbL-0050_RLatLon0.09_PT040H.grib2 2026-05-02 20:50 349K
20260502T18Z_MSC_RDPS_WindV_IsbL-0100_RLatLon0.09_PT040H.grib2 2026-05-02 20:50 341K
20260502T18Z_MSC_RDPS_WindV_IsbL-0150_RLatLon0.09_PT040H.grib2 2026-05-02 20:50 403K
20260502T18Z_MSC_RDPS_WindV_IsbL-0175_RLatLon0.09_PT040H.grib2 2026-05-02 20:50 328K
20260502T18Z_MSC_RDPS_WindV_IsbL-0200_RLatLon0.09_PT040H.grib2 2026-05-02 20:50 340K
20260502T18Z_MSC_RDPS_WindV_IsbL-0225_RLatLon0.09_PT040H.grib2 2026-05-02 20:50 370K
20260502T18Z_MSC_RDPS_WindV_IsbL-0250_RLatLon0.09_PT040H.grib2 2026-05-02 20:50 372K
20260502T18Z_MSC_RDPS_WindV_IsbL-0275_RLatLon0.09_PT040H.grib2 2026-05-02 20:50 384K
20260502T18Z_MSC_RDPS_WindV_IsbL-0300_RLatLon0.09_PT040H.grib2 2026-05-02 20:50 381K
20260502T18Z_MSC_RDPS_WindV_IsbL-0350_RLatLon0.09_PT040H.grib2 2026-05-02 20:50 387K
20260502T18Z_MSC_RDPS_WindV_IsbL-0400_RLatLon0.09_PT040H.grib2 2026-05-02 20:50 367K
20260502T18Z_MSC_RDPS_WindV_IsbL-0450_RLatLon0.09_PT040H.grib2 2026-05-02 20:50 369K
20260502T18Z_MSC_RDPS_WindV_IsbL-0500_RLatLon0.09_PT040H.grib2 2026-05-02 20:50 472K
20260502T18Z_MSC_RDPS_WindV_IsbL-0550_RLatLon0.09_PT040H.grib2 2026-05-02 20:50 471K
20260502T18Z_MSC_RDPS_WindV_IsbL-0600_RLatLon0.09_PT040H.grib2 2026-05-02 20:50 478K
20260502T18Z_MSC_RDPS_WindV_IsbL-0650_RLatLon0.09_PT040H.grib2 2026-05-02 20:50 495K
20260502T18Z_MSC_RDPS_WindV_IsbL-0700_RLatLon0.09_PT040H.grib2 2026-05-02 20:50 516K
20260502T18Z_MSC_RDPS_WindV_IsbL-0750_RLatLon0.09_PT040H.grib2 2026-05-02 20:50 543K
20260502T18Z_MSC_RDPS_WindV_IsbL-0800_RLatLon0.09_PT040H.grib2 2026-05-02 20:50 590K
20260502T18Z_MSC_RDPS_WindV_IsbL-0850_RLatLon0.09_PT040H.grib2 2026-05-02 20:50 647K
20260502T18Z_MSC_RDPS_WindV_IsbL-0875_RLatLon0.09_PT040H.grib2 2026-05-02 20:50 659K
20260502T18Z_MSC_RDPS_WindV_IsbL-0900_RLatLon0.09_PT040H.grib2 2026-05-02 20:50 668K
20260502T18Z_MSC_RDPS_WindV_IsbL-0925_RLatLon0.09_PT040H.grib2 2026-05-02 20:50 675K
20260502T18Z_MSC_RDPS_WindV_IsbL-0950_RLatLon0.09_PT040H.grib2 2026-05-02 20:50 671K
20260502T18Z_MSC_RDPS_WindV_IsbL-0970_RLatLon0.09_PT040H.grib2 2026-05-02 20:50 668K
20260502T18Z_MSC_RDPS_WindV_IsbL-0985_RLatLon0.09_PT040H.grib2 2026-05-02 20:50 665K
20260502T18Z_MSC_RDPS_WindV_IsbL-1000_RLatLon0.09_PT040H.grib2 2026-05-02 20:50 802K
20260502T18Z_MSC_RDPS_WindV_IsbL-1015_RLatLon0.09_PT040H.grib2 2026-05-02 20:50 795K